EW6133 Weather Reports


time (UTC)temp
C
wind
direction
speed
KPH
gust
KPH
rain 1hr
cm
rain 24hr
cm
rain mn
cm
humidity
%
barometer
mb
20260507080304 11 115 1.6 8.0 0.00 0.00 0.00 75 1015.6
20260507075803 11 118 1.6 8.0 0.00 0.00 0.00 77 1015.6
20260507075544 11 56 1.6 8.0 0.00 0.00 0.00 77 1015.6
20260507074802 11 92 1.6 6.4 0.00 0.00 0.00 78 1015.6
20260507074303 11 91 1.6 4.8 0.00 0.00 0.00 79 1015.6
20260507073804 10 33 1.6 4.8 0.00 0.00 0.00 79 1015.5
20260507073546 10 50 0.0 4.8 0.00 0.00 0.00 79 1015.5
20260507072803 10 84 0.0 6.4 0.00 0.00 0.00 79 1015.5
20260507072306 10 96 0.0 6.4 0.00 0.00 0.00 79 1015.5
20260507071803 10 69 0.0 4.8 0.00 0.00 0.00 80 1015.5
20260507071543 10 72 0.0 4.8 0.00 0.00 0.00 79 1015.5
20260507070804 10 130 0.0 3.2 0.00 0.00 0.00 80 1015.4
20260507070304 10 130 1.6 8.0 0.00 0.00 0.00 80 1015.3
20260507065804 10 289 0.0 8.0 0.00 0.00 0.00 81 1015.4
20260507065305 10 345 0.0 4.8 0.00 0.00 0.00 81 1015.4
20260507064803 10 69 1.6 4.8 0.00 0.00 0.00 82 1015.4
20260507064330 10 119 0.0 3.2 0.00 0.00 0.00 85 1015.4
20260507064321 10 36 0.0 3.2 0.00 0.00 0.00 84 1015.4
20260507063303 9 115 1.6 4.8 0.00 0.00 0.00 86 1015.3
20260507063044 9 71 1.6 4.8 0.00 0.00 0.00 88 1015.3
20260507062305 8 80 0.0 4.8 0.00 0.00 0.00 90 1015.3
20260507061803 8 97 0.0 3.2 0.00 0.00 0.00 91 1015.2
20260507061545 8 31 0.0 3.2 0.00 0.00 0.00 93 1015.3
20260507060802 7 31 0.0 3.2 0.00 0.00 0.00 93 1015.2
20260507060303 7 31 0.0 1.6 0.00 0.00 0.00 93 1015.2
20260507055802 7 319 0.0 0.0 0.00 0.00 0.00 93 1015.1
20260507055306 7 319 0.0 0.0 0.00 0.00 0.00 93 1015.1
20260507054804 6 319 0.0 0.0 0.00 0.00 0.00 92 1015.1
20260507054304 6 319 0.0 0.0 0.00 0.00 0.00 92 1015.1
20260507053804 6 319 0.0 0.0 0.00 0.00 0.00 92 1015.0
20260507053325 6 319 0.0 0.0 0.00 0.00 0.00 91 1015.0
20260507053316 6 319 0.0 0.0 0.00 0.00 0.00 92 1015.0
20260507052306 6 319 0.0 0.0 0.00 0.00 0.00 91 1015.0
20260507051803 6 319 0.0 0.0 0.00 0.00 0.00 92 1014.9
20260507051302 6 319 0.0 0.0 0.00 0.00 0.00 91 1015.0
20260507051037 6 319 0.0 0.0 0.00 0.00 0.00 91 1014.9
20260507050304 7 319 0.0 0.0 0.00 0.00 0.00 91 1014.8
20260507045802 7 319 0.0 0.0 0.00 0.00 0.00 91 1014.8
20260507045305 7 319 0.0 0.0 0.00 0.00 0.00 91 1014.8
20260507044804 7 319 0.0 0.0 0.00 0.00 0.00 92 1014.8
20260507044302 7 319 0.0 0.0 0.00 0.00 0.00 92 1014.8
20260507043804 7 319 0.0 0.0 0.00 0.00 0.00 92 1014.8
20260507043304 7 315 0.0 0.0 0.00 0.00 0.00 92 1014.8
20260507042803 7 315 0.0 0.0 0.00 0.00 0.00 92 1014.8
20260507042306 7 315 0.0 0.0 0.00 0.00 0.00 91 1014.8
20260507041802 7 315 0.0 0.0 0.00 0.00 0.00 91 1014.8
20260507041302 7 315 0.0 0.0 0.00 0.00 0.00 90 1014.7
20260507040803 7 315 0.0 0.0 0.00 0.00 0.00 90 1014.7
20260507040302 7 315 0.0 0.0 0.00 0.00 0.00 90 1014.7
20260507040043 7 315 0.0 0.0 0.00 0.00 0.00 90 1014.7
20260507035302 7 315 0.0 0.0 0.00 0.00 0.00 90 1014.7
20260507034802 7 315 0.0 0.0 0.00 0.00 0.00 90 1014.6
20260507034305 7 315 0.0 0.0 0.00 0.00 0.00 90 1014.7
20260507033803 7 315 0.0 0.0 0.00 0.00 0.00 90 1014.6
20260507033302 7 315 0.0 0.0 0.00 0.00 0.00 90 1014.6
20260507032803 7 315 0.0 0.0 0.00 0.00 0.00 90 1014.6
20260507032306 7 315 0.0 0.0 0.00 0.00 0.00 90 1014.6
20260507031803 7 315 0.0 0.0 0.00 0.00 0.00 90 1014.5
20260507031302 7 315 0.0 0.0 0.00 0.00 0.00 90 1014.6
20260507031042 7 315 0.0 0.0 0.00 0.00 0.00 90 1014.6
20260507030541 7 315 0.0 0.0 0.00 0.00 0.00 90 1014.6
20260507025805 7 315 0.0 0.0 0.00 0.00 0.00 90 1014.6
20260507025306 7 315 0.0 0.0 0.00 0.00 0.00 90 1014.6
20260507024803 8 315 0.0 1.6 0.00 0.00 0.00 90 1014.5
20260507024540 8 315 0.0 1.6 0.00 0.00 0.00 90 1014.5
20260507023803 8 315 0.0 0.0 0.00 0.00 0.00 90 1014.5
20260507023304 8 315 0.0 0.0 0.00 0.00 0.00 90 1014.6
20260507022804 8 315 0.0 0.0 0.00 0.00 0.00 90 1014.6
20260507022306 8 315 0.0 3.2 0.00 0.00 0.00 90 1014.5
20260507022039 8 315 0.0 3.2 0.00 0.00 0.00 90 1014.5
20260507021304 8 310 0.0 1.6 0.00 0.00 0.00 90 1014.4
20260507021039 8 298 0.0 0.0 0.00 0.00 0.00 90 1014.4
20260507020303 8 298 0.0 0.0 0.00 0.00 0.00 90 1014.3
20260507015803 8 298 0.0 0.0 0.00 0.00 0.00 90 1014.4
20260507015305 8 298 0.0 0.0 0.00 0.00 0.00 90 1014.4
20260507014804 8 298 0.0 1.6 0.00 0.00 0.00 90 1014.4
20260507014303 8 298 0.0 1.6 0.00 0.00 0.00 90 1014.4
20260507013803 8 0 0.0 0.0 0.00 0.00 0.00 90 1014.4
20260507013301 8 0 0.0 1.6 0.00 0.00 0.00 90 1014.4
20260507012802 8 0 0.0 1.6 0.00 0.00 0.00 90 1014.4
20260507012540 8 0 0.0 0.0 0.00 0.00 0.00 90 1014.3
20260507011803 8 0 0.0 0.0 0.00 0.00 0.00 90 1014.3
20260507011303 8 0 0.0 0.0 0.00 0.00 0.00 90 1014.3
20260507010803 8 0 0.0 0.0 0.00 0.00 0.00 90 1014.3
20260507010302 8 0 0.0 0.0 0.00 0.00 0.00 90 1014.3
20260507005803 8 0 0.0 0.0 0.00 0.00 0.00 90 1014.3
20260507005305 8 0 0.0 0.0 0.00 0.00 0.00 90 1014.3
20260507004803 8 0 0.0 1.6 0.00 0.00 0.00 90 1014.3
20260507004303 8 0 0.0 1.6 0.00 0.00 0.00 90 1014.3
20260507004043 8 0 0.0 0.0 0.00 0.00 0.00 90 1014.3
20260507003305 8 0 0.0 1.6 0.00 0.00 0.00 90 1014.3
20260507002802 8 0 0.0 1.6 0.00 0.00 0.00 90 1014.4
20260507002541 8 0 0.0 1.6 0.00 0.00 0.00 90 1014.4
20260507001805 8 0 0.0 1.6 0.00 0.00 0.00 90 1014.4
20260507001545 8 0 0.0 1.6 0.00 0.00 0.00 90 1014.3
20260507000802 8 335 0.0 1.6 0.00 0.00 0.00 90 1014.3
20260507000306 8 335 0.0 1.6 0.00 0.00 0.00 90 1014.3
20260506235804 8 335 0.0 0.0 0.00 0.00 0.00 90 1014.3
20260506235306 8 335 0.0 0.0 0.00 0.00 0.00 90 1014.3
20260506234801 8 335 0.0 1.6 0.00 0.00 0.00 90 1014.3
20260506234302 8 335 0.0 1.6 0.00 0.00 0.00 90 1014.3
20260506233802 8 335 0.0 0.0 0.00 0.00 0.00 90 1014.2
20260506233305 8 335 0.0 0.0 0.00 0.00 0.00 90 1014.3
20260506232803 8 335 0.0 0.0 0.00 0.00 0.00 90 1014.3
20260506232306 8 335 0.0 1.6 0.00 0.00 0.00 89 1014.2
20260506231803 8 335 0.0 1.6 0.00 0.00 0.00 89 1014.3
20260506231302 8 335 0.0 0.0 0.00 0.00 0.00 89 1014.2
20260506231041 8 335 0.0 1.6 0.00 0.00 0.00 89 1014.2
20260506230543 8 335 0.0 1.6 0.00 0.00 0.00 89 1014.2
20260506225804 8 215 0.0 1.6 0.00 0.00 0.00 89 1014.1
20260506225305 8 215 0.0 3.2 0.00 0.00 0.00 89 1014.1
20260506225040 8 215 0.0 3.2 0.00 0.00 0.00 89 1014.1
20260506224604 8 227 0.0 0.0 0.00 0.00 0.00 89 1014.2
20260506224318 8 227 0.0 0.0 0.00 0.00 0.00 89 1014.2
20260506223301 8 227 0.0 0.0 0.00 0.00 0.00 89 1014.2
20260506222803 8 227 0.0 1.6 0.00 0.00 0.00 89 1014.2
20260506222305 8 227 0.0 1.6 0.00 0.00 0.00 88 1014.2
20260506221803 8 227 0.0 1.6 0.00 0.00 0.00 88 1014.1
20260506221304 8 227 0.0 0.0 0.00 0.00 0.00 88 1014.1
20260506221040 8 227 0.0 1.6 0.00 0.00 0.00 88 1014.1
20260506220303 8 227 0.0 1.6 0.00 0.00 0.00 88 1014.1
20260506215803 8 227 0.0 0.0 0.00 0.00 0.00 88 1014.1
20260506215542 8 227 0.0 1.6 0.00 0.00 0.00 88 1014.1
20260506214802 8 227 0.0 1.6 0.00 0.00 0.00 88 1014.0
20260506214301 8 227 0.0 1.6 0.00 0.00 0.00 88 1014.0
20260506213803 8 227 0.0 1.6 0.00 0.00 0.00 87 1014.0
20260506213301 8 227 0.0 1.6 0.00 0.00 0.00 87 1014.0
20260506212805 8 227 0.0 1.6 0.00 0.00 0.00 87 1014.1
20260506212538 8 227 0.0 1.6 0.00 0.00 0.00 87 1014.1
20260506211803 8 227 0.0 1.6 0.00 0.00 0.00 87 1014.1
20260506211541 8 221 0.0 1.6 0.00 0.00 0.00 87 1014.0
20260506210803 8 221 0.0 1.6 0.00 0.00 0.00 86 1014.0
20260506210303 8 221 0.0 1.6 0.00 0.00 0.00 86 1014.0
20260506205804 8 221 0.0 3.2 0.00 0.00 0.00 86 1013.9
20260506205540 8 221 0.0 3.2 0.00 0.00 0.00 86 1013.9
20260506204803 8 212 0.0 1.6 0.00 0.00 0.00 85 1013.9
20260506204543 8 212 0.0 1.6 0.00 0.00 0.00 85 1013.9
20260506203804 8 212 0.0 1.6 0.00 0.00 0.00 85 1013.9
20260506203301 8 212 0.0 1.6 0.00 0.00 0.00 84 1013.9
20260506202803 9 212 0.0 4.8 0.00 0.00 0.00 84 1013.9
20260506202306 9 355 0.0 4.8 0.00 0.00 0.00 84 1013.8
20260506201803 9 225 0.0 3.2 0.00 0.00 0.00 84 1013.8
20260506201303 9 225 0.0 1.6 0.00 0.00 0.00 83 1013.7
20260506200804 9 225 0.0 3.2 0.00 0.00 0.00 83 1013.7
20260506200302 9 225 0.0 3.2 0.00 0.00 0.00 82 1013.7
20260506195804 9 37 0.0 3.2 0.00 0.00 0.00 82 1013.7
20260506195306 9 148 0.0 1.6 0.00 0.00 0.00 82 1013.6
20260506194804 9 148 0.0 4.8 0.00 0.00 0.00 81 1013.6
20260506194302 10 71 0.0 4.8 0.00 0.00 0.00 81 1013.5
20260506193804 10 242 1.6 4.8 0.00 0.00 0.00 80 1013.5
20260506193303 10 11 0.0 4.8 0.00 0.00 0.00 80 1013.4
20260506192802 10 38 0.0 3.2 0.00 0.00 0.00 79 1013.4
20260506192305 10 227 0.0 1.6 0.00 0.00 0.00 78 1013.3
20260506191803 10 223 0.0 1.6 0.00 0.00 0.00 77 1013.3
20260506191303 10 209 0.0 1.6 0.00 0.00 0.00 76 1013.2
20260506190802 10 199 0.0 1.6 0.00 0.00 0.00 75 1013.2
20260506190302 10 199 0.0 3.2 0.00 0.00 0.00 74 1013.1
20260506185803 10 200 0.0 3.2 0.00 0.00 0.00 73 1013.0
20260506185306 11 198 0.0 4.8 0.00 0.00 0.00 72 1013.0
20260506184803 11 235 1.6 4.8 0.00 0.00 0.00 72 1012.9
20260506184543 11 348 0.0 4.8 0.00 0.00 0.00 72 1012.9
20260506184040 11 205 0.0 3.2 0.00 0.00 0.00 72 1012.9
20260506183305 11 322 0.0 3.2 0.00 0.00 0.00 72 1012.8
20260506182806 11 242 0.0 3.2 0.00 0.00 0.00 72 1012.8
20260506182306 11 120 0.0 3.2 0.00 0.00 0.00 72 1012.7
20260506181804 11 0 0.0 3.2 0.00 0.00 0.00 71 1012.7
20260506181546 11 43 0.0 3.2 0.00 0.00 0.00 71 1012.7
20260506181043 11 295 0.0 3.2 0.00 0.00 0.00 71 1012.7
20260506180300 11 242 0.0 3.2 0.00 0.00 0.00 70 1012.6
20260506180040 11 73 0.0 3.2 0.00 0.00 0.00 70 1012.6
20260506175259 11 45 0.0 3.2 0.00 0.00 0.00 69 1012.4
20260506174759 11 282 0.0 3.2 0.00 0.00 0.00 68 1012.4
20260506174540 12 283 0.0 3.2 0.00 0.00 0.00 68 1012.4
20260506173759 12 26 0.0 3.2 0.00 0.00 0.00 68 1012.3
20260506173258 12 259 0.0 4.8 0.00 0.00 0.00 68 1012.3
20260506173037 12 111 0.0 4.8 0.00 0.00 0.00 68 1012.3
20260506172259 12 225 0.0 3.2 0.00 0.00 0.00 68 1012.3
20260506171759 12 5 0.0 6.4 0.00 0.00 0.00 68 1012.3
20260506171259 12 294 0.0 6.4 0.00 0.00 0.00 67 1012.3
20260506170757 12 103 0.0 3.2 0.00 0.00 0.00 67 1012.3
20260506170259 12 213 1.6 4.8 0.00 0.00 0.00 66 1012.2
20260506165758 12 328 1.6 4.8 0.00 0.00 0.00 66 1012.2
20260506165259 12 264 0.0 3.2 0.00 0.00 0.00 66 1012.2
20260506164758 12 355 0.0 3.2 0.00 0.00 0.00 66 1012.2
20260506164256 12 9 1.6 3.2 0.00 0.00 0.00 65 1012.2
20260506163756 12 264 0.0 4.8 0.00 0.00 0.00 64 1012.2
20260506163250 12 225 0.0 4.8 0.00 0.00 0.00 63 1012.2
20260506163024 12 305 0.0 3.2 0.00 0.00 0.00 61 1012.2
20260506162238 12 311 0.0 4.8 0.00 0.00 0.00 61 1012.1
20260506161738 12 242 0.0 4.8 0.00 0.00 0.00 60 1012.2
20260506161233 13 56 0.0 3.2 0.00 0.00 0.00 60 1012.2
20260506160732 13 62 0.0 1.6 0.00 0.00 0.00 60 1012.2
20260506160510 13 62 0.0 3.2 0.00 0.00 0.00 61 1012.2
20260506160012 13 61 0.0 4.8 0.00 0.00 0.00 62 1012.2
20260506155256 12 106 0.0 3.2 0.00 0.00 0.00 61 1012.2
20260506155247 12 65 0.0 4.8 0.00 0.00 0.00 62 1012.2
20260506154234 12 106 1.6 3.2 0.00 0.00 0.00 60 1012.2
20260506154009 12 267 1.6 3.2 0.00 0.00 0.00 60 1012.3
20260506153231 12 318 0.0 3.2 0.00 0.00 0.00 60 1012.2
20260506152731 12 40 0.0 3.2 0.00 0.00 0.00 61 1012.2
20260506152233 13 40 1.6 4.8 0.00 0.00 0.00 61 1012.2
20260506151732 13 296 0.0 4.8 0.00 0.00 0.00 62 1012.2
20260506151231 13 309 0.0 4.8 0.00 0.00 0.00 62 1012.2
20260506150733 13 17 0.0 4.8 0.00 0.00 0.00 63 1012.2
20260506150232 13 232 0.0 3.2 0.00 0.00 0.00 61 1012.2
20260506145733 13 232 0.0 3.2 0.00 0.00 0.00 61 1012.2
20260506145231 13 234 0.0 3.2 0.00 0.00 0.00 62 1012.2
20260506144733 13 234 0.0 3.2 0.00 0.00 0.00 63 1012.2
20260506144510 13 236 0.0 3.2 0.00 0.00 0.00 63 1012.2
20260506143732 13 240 0.0 3.2 0.00 0.00 0.00 64 1012.3
20260506143231 13 232 0.0 4.8 0.00 0.00 0.00 64 1012.2
20260506143013 13 330 0.0 4.8 0.00 0.00 0.00 63 1012.2
20260506142253 13 194 1.6 4.8 0.00 0.00 0.00 63 1012.2
20260506142246 13 202 0.0 4.8 0.00 0.00 0.00 63 1012.2
20260506141511 13 182 1.6 4.8 0.00 0.00 0.00 62 1012.3
20260506140732 13 24 1.6 6.4 0.00 0.00 0.00 63 1012.3
20260506140232 13 106 1.6 6.4 0.00 0.00 0.00 64 1012.3
20260506135733 12 90 1.6 6.4 0.00 0.00 0.00 66 1012.3
20260506135235 12 355 1.6 6.4 0.00 0.00 0.00 65 1012.3
20260506134731 12 169 1.6 6.4 0.00 0.00 0.00 66 1012.4
20260506134232 12 300 1.6 6.4 0.00 0.00 0.00 66 1012.3
20260506133731 12 280 1.6 4.8 0.00 0.00 0.00 67 1012.5
20260506133231 12 215 1.6 4.8 0.00 0.00 0.00 67 1012.4
20260506132731 12 31 1.6 4.8 0.00 0.00 0.00 68 1012.4
20260506132232 12 213 1.6 8.0 0.00 0.00 0.00 68 1012.4
20260506131732 12 5 1.6 8.0 0.00 0.00 0.00 70 1012.4
20260506131231 11 313 1.6 4.8 0.00 0.00 0.00 70 1012.5
20260506130733 11 276 1.6 4.8 0.00 0.00 0.00 70 1012.4
20260506130234 12 266 1.6 3.2 0.00 0.00 0.00 70 1012.4
20260506130012 12 263 1.6 3.2 0.00 0.00 0.00 70 1012.5
20260506125231 12 93 1.6 4.8 0.00 0.00 0.00 71 1012.5
20260506124734 12 49 1.6 4.8 0.00 0.00 0.00 71 1012.5
20260506124231 12 211 1.6 4.8 0.00 0.00 0.00 70 1012.5
20260506123732 12 19 1.6 4.8 0.00 0.00 0.00 70 1012.5
20260506123506 12 220 1.6 4.8 0.00 0.00 0.00 70 1012.5
20260506122731 12 294 0.0 6.4 0.00 0.00 0.00 72 1012.5
20260506122233 11 187 1.6 14.5 0.00 0.00 0.00 71 1012.5
20260506121733 11 269 1.6 14.5 0.00 0.00 0.00 71 1012.5
20260506121231 11 262 1.6 4.8 0.00 0.00 0.00 72 1012.5
20260506120732 11 249 1.6 4.8 0.00 0.00 0.00 73 1012.6
20260506120233 11 215 1.6 4.8 0.00 0.00 0.00 74 1012.5
20260506115729 11 271 1.6 4.8 0.00 0.00 0.00 73 1012.6
20260506115230 11 214 1.6 4.8 0.00 0.00 0.00 73 1012.6
20260506114730 11 245 1.6 4.8 0.00 0.00 0.00 74 1012.6
20260506114230 11 245 1.6 6.4 0.00 0.00 0.00 74 1012.6
20260506113727 11 271 1.6 6.4 0.00 0.00 0.00 75 1012.6
20260506113229 11 327 1.6 6.4 0.00 0.00 0.00 75 1012.5
20260506112726 11 235 1.6 8.0 0.00 0.00 0.00 74 1012.6
20260506112225 11 233 1.6 8.0 0.00 0.00 0.00 73 1012.6
20260506111727 11 287 1.6 16.1 0.00 0.00 0.00 72 1012.6
20260506111225 11 12 1.6 16.1 0.00 0.00 0.00 72 1012.6
20260506110726 11 309 1.6 4.8 0.00 0.00 0.00 73 1012.6
20260506110224 11 30 1.6 8.0 0.00 0.00 0.00 73 1012.6
20260506105725 11 347 1.6 8.0 0.00 0.00 0.00 72 1012.6
20260506105225 11 241 1.6 6.4 0.00 0.00 0.00 73 1012.7
20260506105005 11 213 1.6 6.4 0.00 0.00 0.00 73 1012.7
20260506104225 11 355 1.6 6.4 0.00 0.00 0.00 73 1012.6
20260506104004 11 274 1.6 6.4 0.00 0.00 0.00 73 1012.7
20260506103224 11 258 3.2 6.4 0.00 0.00 0.00 72 1012.7
20260506102723 11 31 1.6 8.0 0.00 0.00 0.00 73 1012.7
20260506102224 11 62 1.6 8.0 0.00 0.00 0.00 73 1012.6
20260506101723 11 241 3.2 6.4 0.00 0.00 0.00 73 1012.5
20260506101223 11 247 1.6 6.4 0.00 0.00 0.00 74 1012.5
20260506100721 11 56 1.6 6.4 0.00 0.00 0.00 74 1012.5
20260506100222 11 266 1.6 8.0 0.00 0.00 0.00 73 1012.6
20260506095721 11 236 3.2 8.0 0.00 0.00 0.00 72 1012.6
20260506095222 11 222 1.6 8.0 0.00 0.00 0.00 73 1012.6
20260506094720 11 5 1.6 8.0 0.00 0.00 0.00 73 1012.5
20260506094217 11 71 3.2 8.0 0.00 0.00 0.00 72 1012.5
20260506093716 11 259 1.6 6.4 0.00 0.00 0.00 72 1012.5
20260506093456 11 272 1.6 6.4 0.00 0.00 0.00 73 1012.5
20260506092714 11 211 1.6 6.4 0.00 0.00 0.00 72 1012.5
20260506092214 10 229 1.6 6.4 0.00 0.00 0.00 74 1012.4
20260506091714 10 42 1.6 6.4 0.00 0.00 0.00 73 1012.5
20260506091216 10 5 1.6 4.8 0.00 0.00 0.00 73 1012.5
20260506090714 10 5 1.6 4.8 0.00 0.00 0.00 72 1012.4
20260506090214 10 266 1.6 6.4 0.00 0.00 0.00 72 1012.4
20260506085713 11 244 1.6 6.4 0.00 0.00 0.00 72 1012.4
20260506085217 11 219 1.6 6.4 0.00 0.00 0.00 71 1012.4
20260506084713 11 304 1.6 11.3 0.00 0.00 0.00 71 1012.4
20260506084215 11 248 1.6 11.3 0.00 0.00 0.00 72 1012.3
20260506083713 10 248 1.6 6.4 0.00 0.00 0.00 72 1012.4
20260506083213 10 267 1.6 8.0 0.00 0.00 0.00 74 1012.4
20260506082713 10 186 1.6 8.0 0.00 0.00 0.00 74 1012.4
20260506082212 10 279 1.6 4.8 0.00 0.00 0.00 74 1012.5
20260506081713 10 159 1.6 6.4 0.00 0.00 0.00 75 1012.4
20260506081215 10 198 1.6 6.4 0.00 0.00 0.00 75 1012.4